^^
Meteo Knjazevac Station Historical Data
Daily Summary for March 9, 2021 Units:  Metric    English   Both
Daily Weekly Monthly Yearly Custom
  High: Low: Average:
Temperature: 8.9 °C 6.3 °C 7.4 °C
Dew Point: 7.2 °C 4.9 °C 6.2 °C
Humidity: 96% 86% 92%
Wind Speed: 14.5km/h 3.2km/h 8.9km/h
Wind Gust: 32.2km/h - -
Wind- - SSE
Pressure: 1025.6 hPa 1024.3 hPa -
Precipitation: 3.05 mm    
Historical Graphs
 
 
Tabular Data for March 9, 2021
Time Temperature Dew Point Pressure Wind Wind Speed Wind Gust Humidity Rainfall Rate (Hourly) solar Conditions
00:00 6.7 °C 5.2 °C 1025.3 hPa North 11.3 km/h 24.1 km/h 90% 0 mm 0 W/m2
00:10 6.7 °C 5.2 °C 1025.3 hPa North 8 km/h 22.5 km/h 90% 0 mm 0 W/m2
00:20 6.7 °C 5 °C 1025.3 hPa North 8 km/h 17.7 km/h 89% 0 mm 0 W/m2
00:30 6.8 °C 5.1 °C 1025.3 hPa North 8 km/h 14.5 km/h 89% 0 mm 0 W/m2
00:40 6.8 °C 5.3 °C 1025.3 hPa North 3.2 km/h 14.5 km/h 90% 0 mm 0 W/m2
00:50 6.8 °C 5.1 °C 1024.9 hPa North 4.8 km/h 24.1 km/h 89% 0 mm 0 W/m2
01:00 6.9 °C 5.1 °C 1024.9 hPa North 9.7 km/h 17.7 km/h 88% 0 mm 0 W/m2
01:10 6.9 °C 5.1 °C 1024.9 hPa North 8 km/h 12.9 km/h 88% 0 mm 0 W/m2
01:20 6.9 °C 5.2 °C 1024.9 hPa North 8 km/h 16.1 km/h 89% 0 mm 0 W/m2
01:30 7 °C 5.2 °C 1024.9 hPa North 8 km/h 16.1 km/h 88% 0 mm 0 W/m2
01:40 7 °C 5.2 °C 1024.9 hPa North 8 km/h 19.3 km/h 88% 0 mm 0 W/m2
01:50 7 °C 5.2 °C 1024.9 hPa North 8 km/h 20.9 km/h 88% 0 mm 0 W/m2
02:00 7.1 °C 5.2 °C 1024.6 hPa North 8 km/h 25.7 km/h 88% 0 mm 0 W/m2
02:10 7.1 °C 4.9 °C 1024.9 hPa North 9.7 km/h 24.1 km/h 86% 0 mm 0 W/m2
02:20 7.1 °C 5.2 °C 1024.9 hPa North 9.7 km/h 16.1 km/h 88% 0 mm 0 W/m2
02:30 7.2 °C 5 °C 1024.6 hPa North 8 km/h 20.9 km/h 86% 0 mm 0 W/m2
02:40 7.2 °C 5.3 °C 1024.6 hPa North 3.2 km/h 20.9 km/h 88% 0 mm 0 W/m2
02:50 7.2 °C 5.3 °C 1024.6 hPa North 8 km/h 24.1 km/h 88% 0 mm 0 W/m2
03:00 7.1 °C 5.2 °C 1024.6 hPa North 11.3 km/h 20.9 km/h 88% 0 mm 0 W/m2
03:10 7.1 °C 5.1 °C 1024.6 hPa North 12.9 km/h 22.5 km/h 87% 0 mm 0 W/m2
03:20 7.1 °C 5.2 °C 1024.6 hPa North 11.3 km/h 32.2 km/h 88% 0 mm 0 W/m2
03:30 7.1 °C 5.2 °C 1024.6 hPa North 8 km/h 20.9 km/h 88% 0 mm 0 W/m2
03:40 7.1 °C 5.2 °C 1024.6 hPa North 9.7 km/h 20.9 km/h 88% 0 mm 0 W/m2
03:50 7.1 °C 5.2 °C 1024.6 hPa North 9.7 km/h 32.2 km/h 88% 0 mm 0 W/m2
04:00 7.1 °C 5.2 °C 1024.6 hPa North 8 km/h 27.4 km/h 88% 0 mm 0 W/m2
04:10 7 °C 5.2 °C 1024.6 hPa North 9.7 km/h 25.7 km/h 88% 0 mm 0 W/m2
04:20 7 °C 5.2 °C 1024.6 hPa North 11.3 km/h 22.5 km/h 88% 0 mm 0 W/m2
04:30 7 °C 5.3 °C 1024.6 hPa North 9.7 km/h 16.1 km/h 89% 0 mm 0 W/m2
04:40 6.9 °C 5.2 °C 1024.3 hPa North 9.7 km/h 22.5 km/h 89% 0 mm 0 W/m2
04:50 6.8 °C 5.3 °C 1024.6 hPa North 9.7 km/h 22.5 km/h 90% 0.25 mm 0 W/m2
05:00 6.8 °C 5.4 °C 1024.3 hPa North 4.8 km/h 20.9 km/h 91% 0.25 mm 0 W/m2
05:10 6.7 °C 5.3 °C 1024.3 hPa North 8 km/h 20.9 km/h 91% 0.25 mm 0 W/m2
05:20 6.6 °C 5.2 °C 1024.3 hPa North 12.9 km/h 24.1 km/h 91% 0 mm 0 W/m2
05:30 6.5 °C 5.4 °C 1024.6 hPa North 9.7 km/h 24.1 km/h 93% 0 mm 0 W/m2
05:40 6.5 °C 5.4 °C 1024.3 hPa North 9.7 km/h 19.3 km/h 93% 0 mm 0 W/m2
05:50 6.5 °C 5.4 °C 1024.6 hPa North 9.7 km/h 20.9 km/h 93% 0 mm 0 W/m2
06:00 6.4 °C 5.3 °C 1024.6 hPa North 9.7 km/h 22.5 km/h 93% 0 mm 0 W/m2
06:10 6.4 °C 5.3 °C 1024.6 hPa North 9.7 km/h 24.1 km/h 93% 0 mm 0 W/m2
06:20 6.4 °C 5.5 °C 1024.6 hPa North 9.7 km/h 19.3 km/h 94% 0 mm 0 W/m2
06:30 6.3 °C 5.4 °C 1024.6 hPa North 9.7 km/h 20.9 km/h 94% 0 mm 0 W/m2
06:40 6.3 °C 5.4 °C 1024.6 hPa North 11.3 km/h 19.3 km/h 94% 0 mm 1 W/m2
06:50 6.3 °C 5.4 °C 1024.6 hPa North 4.8 km/h 22.5 km/h 94% 0 mm 3 W/m2
07:00 6.3 °C 5.4 °C 1024.6 hPa North 4.8 km/h 20.9 km/h 94% 0 mm 4 W/m2
07:10 6.4 °C 5.5 °C 1024.6 hPa North 9.7 km/h 22.5 km/h 94% 0 mm 9 W/m2
07:20 6.4 °C 5.5 °C 1024.6 hPa North 4.8 km/h 20.9 km/h 94% 0 mm 16 W/m2
07:30 6.5 °C 5.4 °C 1024.6 hPa North 9.7 km/h 19.3 km/h 93% 0 mm 24 W/m2
07:40 6.6 °C 5.5 °C 1024.6 hPa North 8 km/h 16.1 km/h 93% 0 mm 36 W/m2
07:50 6.7 °C 5.6 °C 1024.6 hPa North 4.8 km/h 19.3 km/h 93% 0 mm 45 W/m2
08:00 6.8 °C 5.7 °C 1024.6 hPa North 9.7 km/h 22.5 km/h 93% 0 mm 60 W/m2
08:10 6.8 °C 5.7 °C 1024.6 hPa North 11.3 km/h 20.9 km/h 93% 0 mm 58 W/m2
08:20 6.9 °C 5.8 °C 1024.9 hPa North 12.9 km/h 22.5 km/h 93% 0.25 mm 62 W/m2
08:30 6.8 °C 5.8 °C 1024.9 hPa North 14.5 km/h 24.1 km/h 93% 0.25 mm 56 W/m2
08:40 6.8 °C 5.9 °C 1024.9 hPa North 11.3 km/h 25.7 km/h 94% 0.51 mm 44 W/m2
08:50 6.8 °C 6.1 °C 1024.9 hPa North 11.3 km/h 24.1 km/h 95% 0.51 mm 39 W/m2
09:00 6.7 °C 5.9 °C 1024.9 hPa North 9.7 km/h 22.5 km/h 95% 0.25 mm 48 W/m2
09:10 6.7 °C 5.9 °C 1024.9 hPa North 4.8 km/h 24.1 km/h 95% 0 mm 72 W/m2
09:20 6.7 °C 6.1 °C 1024.9 hPa North 8 km/h 19.3 km/h 96% 0.51 mm 90 W/m2
09:30 6.8 °C 6.2 °C 1024.9 hPa North 11.3 km/h 20.9 km/h 96% 0 mm 101 W/m2
09:40 6.8 °C 6.2 °C 1025.3 hPa North 8 km/h 20.9 km/h 96% 0.25 mm 127 W/m2
09:50 6.9 °C 6.3 °C 1025.3 hPa North 11.3 km/h 27.4 km/h 96% 0 mm 129 W/m2
10:00 7 °C 6.4 °C 1025.3 hPa North 9.7 km/h 22.5 km/h 96% 0 mm 159 W/m2
10:10 7.2 °C 6.6 °C 1025.3 hPa North 9.7 km/h 20.9 km/h 96% 0 mm 157 W/m2
10:20 7.2 °C 6.6 °C 1025.3 hPa North 9.7 km/h 19.3 km/h 96% 0 mm 173 W/m2
10:30 7.3 °C 6.6 °C 1025.3 hPa North 11.3 km/h 20.9 km/h 95% 0 mm 152 W/m2
10:40 7.4 °C 6.5 °C 1025.3 hPa North 9.7 km/h 25.7 km/h 94% 0 mm 158 W/m2
10:50 7.5 °C 6.8 °C 1025.3 hPa North 12.9 km/h 20.9 km/h 95% 0 mm 173 W/m2
11:00 7.6 °C 6.7 °C 1025.3 hPa North 11.3 km/h 24.1 km/h 94% 0 mm 208 W/m2
11:10 7.8 °C 6.9 °C 1025.3 hPa North 11.3 km/h 24.1 km/h 94% 0 mm 238 W/m2
11:20 8 °C 6.9 °C 1025.3 hPa North 11.3 km/h 24.1 km/h 93% 0 mm 258 W/m2
11:30 8.2 °C 7 °C 1025.3 hPa North 11.3 km/h 25.7 km/h 92% 0 mm 230 W/m2
11:40 8.3 °C 6.9 °C 1025.3 hPa North 11.3 km/h 20.9 km/h 91% 0 mm 239 W/m2
11:50 8.4 °C 6.8 °C 1025.3 hPa North 11.3 km/h 32.2 km/h 90% 0 mm 229 W/m2
12:00 8.5 °C 6.9 °C 1025.3 hPa North 8 km/h 19.3 km/h 90% 0 mm 189 W/m2
12:10 8.5 °C 6.9 °C 1025.3 hPa North 9.7 km/h 20.9 km/h 90% 0 mm 174 W/m2
12:20 8.6 °C 6.9 °C 1025.3 hPa North 12.9 km/h 24.1 km/h 89% 0 mm 229 W/m2
12:30 8.8 °C 7.1 °C 1025.3 hPa North 11.3 km/h 19.3 km/h 89% 0 mm 243 W/m2
12:40 8.9 °C 7.2 °C 1025.3 hPa North 11.3 km/h 25.7 km/h 89% 0 mm 202 W/m2
12:50 8.9 °C 7 °C 1025.3 hPa North 11.3 km/h 22.5 km/h 88% 0 mm 209 W/m2
13:00 8.9 °C 7 °C 1025.3 hPa North 9.7 km/h 27.4 km/h 88% 0 mm 201 W/m2
13:10 8.9 °C 7 °C 1025.3 hPa North 11.3 km/h 24.1 km/h 88% 0 mm 138 W/m2
13:20 8.8 °C 6.9 °C 1025.3 hPa North 11.3 km/h 22.5 km/h 88% 0 mm 104 W/m2
13:30 8.8 °C 6.9 °C 1025.3 hPa North 8 km/h 24.1 km/h 88% 0 mm 91 W/m2
13:40 8.7 °C 6.8 °C 1025.3 hPa North 9.7 km/h 22.5 km/h 88% 0 mm 128 W/m2
13:50 8.8 °C 6.9 °C 1025.3 hPa North 8 km/h 22.5 km/h 88% 0 mm 104 W/m2
14:00 8.8 °C 6.6 °C 1025.3 hPa North 8 km/h 22.5 km/h 86% 0 mm 98 W/m2
14:10 8.7 °C 6.8 °C 1025.3 hPa North 8 km/h 22.5 km/h 88% 0 mm 89 W/m2
14:20 8.6 °C 6.7 °C 1025.3 hPa North 9.7 km/h 22.5 km/h 88% 0 mm 78 W/m2
14:30 8.5 °C 6.8 °C 1025.3 hPa North 9.7 km/h 22.5 km/h 89% 0 mm 58 W/m2
14:40 8.4 °C 6.7 °C 1025.3 hPa North 12.9 km/h 22.5 km/h 89% 0 mm 61 W/m2
14:50 8.4 °C 6.7 °C 1025.3 hPa North 4.8 km/h 20.9 km/h 89% 0 mm 47 W/m2
15:00 8.3 °C 6.6 °C 1025.3 hPa North 9.7 km/h 19.3 km/h 89% 0 mm 54 W/m2
15:10 8.3 °C 6.6 °C 1025.3 hPa North 8 km/h 20.9 km/h 89% 0 mm 58 W/m2
15:20 8.3 °C 6.8 °C 1025.3 hPa North 9.7 km/h 20.9 km/h 90% 0 mm 62 W/m2
15:30 8.3 °C 6.8 °C 1025.3 hPa North 8 km/h 27.4 km/h 90% 0 mm 49 W/m2
15:40 8.3 °C 6.8 °C 1025.3 hPa North 9.7 km/h 20.9 km/h 90% 0 mm 43 W/m2
15:50 8.3 °C 6.8 °C 1025.3 hPa North 11.3 km/h 20.9 km/h 90% 0 mm 46 W/m2
16:00 8.3 °C 6.8 °C 1025.3 hPa North 9.7 km/h 22.5 km/h 90% 0 mm 48 W/m2
16:10 8.2 °C 6.7 °C 1025.3 hPa North 11.3 km/h 22.5 km/h 90% 0 mm 53 W/m2
16:20 8.2 °C 6.8 °C 1025.3 hPa North 9.7 km/h 20.9 km/h 91% 0 mm 52 W/m2
16:30 8.1 °C 6.7 °C 1025.3 hPa North 4.8 km/h 19.3 km/h 91% 0 mm 40 W/m2
16:40 8.1 °C 7.1 °C 1025.3 hPa North 9.7 km/h 20.9 km/h 93% 0 mm 44 W/m2
16:50 8 °C 6.9 °C 1025.3 hPa North 11.3 km/h 24.1 km/h 93% 0 mm 42 W/m2
17:00 7.9 °C 6.8 °C 1025.3 hPa North 9.7 km/h 19.3 km/h 93% 0 mm 42 W/m2
17:10 7.9 °C 7 °C 1025.3 hPa North 9.7 km/h 20.9 km/h 94% 0.25 mm 27 W/m2
17:20 7.8 °C 6.9 °C 1025.3 hPa North 9.7 km/h 20.9 km/h 94% 0.25 mm 15 W/m2
17:30 7.7 °C 6.9 °C 1025.3 hPa North 9.7 km/h 20.9 km/h 95% 0.25 mm 9 W/m2
17:40 7.6 °C 6.8 °C 1025.3 hPa North 8 km/h 19.3 km/h 95% 0.25 mm 5 W/m2
17:50 7.5 °C 6.8 °C 1025.3 hPa North 11.3 km/h 20.9 km/h 95% 0 mm 3 W/m2
18:00 7.5 °C 6.8 °C 1025.3 hPa North 8 km/h 19.3 km/h 95% 0 mm 0 W/m2
18:10 7.5 °C 6.9 °C 1025.3 hPa North 9.7 km/h 20.9 km/h 96% 0 mm 0 W/m2
18:20 7.4 °C 6.8 °C 1025.3 hPa North 9.7 km/h 19.3 km/h 96% 0 mm 0 W/m2
18:30 7.3 °C 6.7 °C 1025.3 hPa North 8 km/h 19.3 km/h 96% 0 mm 0 W/m2
18:40 7.3 °C 6.7 °C 1025.3 hPa North 11.3 km/h 17.7 km/h 96% 0 mm 0 W/m2
18:50 7.3 °C 6.7 °C 1025.6 hPa North 8 km/h 17.7 km/h 96% 0 mm 0 W/m2
19:00 7.3 °C 6.7 °C 1025.6 hPa North 8 km/h 19.3 km/h 96% 0 mm 0 W/m2
19:10 7.3 °C 6.7 °C 1025.6 hPa North 8 km/h 20.9 km/h 96% 0 mm 0 W/m2
19:20 7.3 °C 6.7 °C 1025.3 hPa North 9.7 km/h 22.5 km/h 96% 0 mm 0 W/m2
19:30 7.2 °C 6.6 °C 1025.3 hPa North 9.7 km/h 14.5 km/h 96% 0 mm 0 W/m2
19:40 7.2 °C 6.6 °C 1025.6 hPa North 9.7 km/h 17.7 km/h 96% 0 mm 0 W/m2
19:50 7.2 °C 6.6 °C 1025.3 hPa North 8 km/h 17.7 km/h 96% 0 mm 0 W/m2
20:00 7.2 °C 6.6 °C 1025.3 hPa North 4.8 km/h 16.1 km/h 96% 0 mm 0 W/m2
20:10 7.2 °C 6.6 °C 1025.3 hPa North 9.7 km/h 20.9 km/h 96% 0 mm 0 W/m2
20:20 7.3 °C 6.7 °C 1025.3 hPa North 8 km/h 20.9 km/h 96% 0 mm 0 W/m2
20:30 7.3 °C 6.7 °C 1025.6 hPa North 8 km/h 16.1 km/h 96% 0 mm 0 W/m2
20:40 7.3 °C 6.7 °C 1025.6 hPa North 4.8 km/h 17.7 km/h 96% 0 mm 0 W/m2
20:50 7.3 °C 6.7 °C 1025.6 hPa North 4.8 km/h 22.5 km/h 96% 0 mm 0 W/m2
21:00 7.3 °C 6.7 °C 1025.6 hPa North 8 km/h 14.5 km/h 96% 0 mm 0 W/m2
21:10 7.3 °C 6.6 °C 1025.6 hPa North 3.2 km/h 19.3 km/h 95% 0 mm 0 W/m2
21:20 7.3 °C 6.7 °C 1025.6 hPa North 4.8 km/h 16.1 km/h 96% 0 mm 0 W/m2
21:30 7.3 °C 6.6 °C 1025.6 hPa North 8 km/h 19.3 km/h 95% 0 mm 0 W/m2
21:40 7.4 °C 6.7 °C 1025.6 hPa North 9.7 km/h 16.1 km/h 95% 0 mm 0 W/m2
21:50 7.5 °C 6.8 °C 1025.6 hPa North 4.8 km/h 17.7 km/h 95% 0 mm 0 W/m2
22:00 7.5 °C 6.8 °C 1025.6 hPa North 9.7 km/h 16.1 km/h 95% 0 mm 0 W/m2
22:10 7.5 °C 6.6 °C 1025.6 hPa North 4.8 km/h 19.3 km/h 94% 0 mm 0 W/m2
22:20 7.6 °C 6.7 °C 1025.6 hPa North 8 km/h 19.3 km/h 94% 0 mm 0 W/m2
22:30 7.6 °C 6.7 °C 1025.6 hPa North 4.8 km/h 19.3 km/h 94% 0 mm 0 W/m2
22:40 7.7 °C 6.7 °C 1025.6 hPa North 8 km/h 14.5 km/h 93% 0 mm 0 W/m2
22:50 7.7 °C 6.7 °C 1025.6 hPa North 4.8 km/h 14.5 km/h 93% 0 mm 0 W/m2
23:00 7.8 °C 6.7 °C 1025.6 hPa North 8 km/h 19.3 km/h 93% 0 mm 0 W/m2
23:10 7.8 °C 6.7 °C 1025.6 hPa North 8 km/h 20.9 km/h 93% 0 mm 0 W/m2
23:20 7.8 °C 6.7 °C 1025.6 hPa North 8 km/h 17.7 km/h 93% 0 mm 0 W/m2
23:30 7.8 °C 6.7 °C 1025.6 hPa North 4.8 km/h 17.7 km/h 93% 0 mm 0 W/m2
23:40 7.8 °C 6.7 °C 1025.6 hPa North 4.8 km/h 16.1 km/h 93% 0 mm 0 W/m2
23:50 7.8 °C 6.7 °C 1025.6 hPa North 8 km/h 17.7 km/h 93% 0 mm 0 W/m2
Knjazevac, Serbia
Compliments of Weather Underground - 2 mb